COSMOS 2200

Satellite information

Favourite Embed

Satellite Type and Status

PAYLOADIN ORBIT

Key statistics

Satellite COSMOS 2200 at a glance.

Uptime

12164

Days in orbit

Revolutions

≈ 12.6

Per day

Orbit

LEO

Low Earth Orbit

Inclination

82.6

Latest

Satellite identification and parameters

Extended collection of information and parameters for COSMOS 2200.

Object identification

Identified? True

Debris? False

Object name: COSMOS 2200

International designator: 1992-042D

Object number (NORAD): 22037

Object ID (CCSDS): 22037

Country: COMMONWEALTH OF INDEPENDENT STATES (CIS)

Current information (Y/N): Y

RCS size: LARGE

Orbital parameters

Period: 113.985 minutes

Inclination: 82.5927 deg

SMA: 7787.413 km

Apoapsis: 1416.499 km

Periapsis: 1402.057 km

RAAN: 21.4026 deg

Eccentricy: 0.0009273

Argument of periapsis: 107.699 deg

Mean anomaly: 17.153 deg

Mean motion: 12.63318736 rev/day

Mean motion (dot): 0.00000023 rev/day2

B* drag term: 0.000069165 1/REarth

Two-line elements (TLE)

Creation date: Oct. 31, 2025, 11:06 p.m.

Reference frame: TEME

Reference center: EARTH

Epoch: Oct. 31, 2025, 6:22 p.m. UTC

TLE line 0: 0 COSMOS 2200

TLE line 1: 1 22037U 92042D 25304.76562729 .00000023 00000-0 69165-4 0 9995

TLE line 2: 2 22037 82.5927 21.4026 0009273 107.6990 17.1530 12.63318736535366

Live tracking on map

Real-time ground track for satellite COSMOS 2200.

In-orbit conjunctions

A list of the most updated potential collisions computed for object COSMOS 2200.

Target Orbit TCA Probability of collision Miss distance Type
COSMOS 1691 LEO 2025-10-13 13:59:52 0.0002653371 140.0 (m) PAYLOAD

Associated space launch

Second generation store-dump military communications satellite

COSMOS 2200 was lifted into orbit during the mission ‘Tsiklon-3 | Strela-3 79 to 82’, on board a Tsiklon-3 space rocket.

The launch took place on July 13, 1992, 5:41 p.m. from 32/1.

For more information about the launch, click the button.

Launch to space Tsiklon-3 | Strela-3 79 to 82
Tsiklon-3 | Strela-3 79 to 82

Agency: N/A

Status: Launch Successful

Launch date: July 13, 1992, 5:41 p.m. UTC

Rocket: Tsiklon-3

Launch pad: 32/1

Location: Plesetsk Cosmodrome, Russian Federation

...

Latest news about this satellite

There are no fresh news available about this satellite. Check back as we update our databases every day.


Newsletter sign-up

Weekly statistics, charts and insights to help you stay on top of the space industry.